Location: Lancaster
(34.6980°N, 118.1360°W)
Time: 02:36:02
(UTC-07:00)

Vanguard 2 - Visible Passes

Search period start: 18 June 2018 00:00
Search period end: 28 June 2018 00:00
Orbit: 553 x 2939 km, 32.9° (Epoch: 17 June)

Date Brightness Start Highest point End Pass type
(mag) Time Alt. Az. Time Alt. Az. Time Alt. Az.
18 Jun 8.8 04:09:37 19° SSW 04:12:11 26° SSE 04:16:03 10° ESE visible
19 Jun 8.3 04:26:23 17° SW 04:30:17 36° SSE 04:34:23 10° E visible
20 Jun 9.7 02:41:43 18° SE 02:41:43 18° SE 02:44:00 10° ESE visible
20 Jun 7.9 04:43:07 13° WSW 04:48:21 47° SSE 04:52:33 10° E visible
21 Jun 9.1 02:58:24 29° SSE 02:58:24 29° SSE 03:02:38 10° E visible
21 Jun 7.6 05:00:22 10° WSW 05:06:25 59° S 05:10:38 10° E visible
22 Jun 8.7 03:15:02 37° S 03:15:56 38° SSE 03:20:59 10° E visible
23 Jun 10.4 01:30:13 11° ESE 01:30:13 11° ESE 01:30:28 10° ESE visible
23 Jun 8.3 03:31:36 36° SW 03:34:04 49° SSE 03:39:09 10° E visible
24 Jun 9.9 01:46:44 21° ESE 01:46:44 21° ESE 01:49:08 10° E visible
24 Jun 8.0 03:48:07 27° WSW 03:52:10 60° S 03:57:15 10° E visible
25 Jun 9.3 02:03:12 35° SE 02:03:12 35° SE 02:07:31 10° E visible
25 Jun 7.9 04:04:34 19° WSW 04:10:16 69° S 04:15:17 10° E visible
26 Jun 8.8 02:19:32 51° SSE 02:19:32 51° SSE 02:25:43 10° E visible
26 Jun 7.8 04:20:55 11° W 04:28:23 75° S 04:33:19 10° E visible
27 Jun 10.5 00:34:27 14° E 00:34:27 14° E 00:35:19 10° E visible
27 Jun 8.6 02:35:48 53° SSW 02:37:28 61° SSE 02:43:50 10° E visible
27 Jun 7.8 04:38:47 10° W 04:46:29 76° S 04:51:19 10° E visible
27 Jun 11.4 22:25:31 10° S 22:25:41 10° S 22:25:41 10° S visible
